This is the latest recevied weather packets stored in our database for station/object N1TKS. If no packets are shown the sender has not sent any weather packets the latest 10 day(s).
| Time | Temp. | Humidity | Pressure | Rain* | Wind** | Luminosity | Snow |
|---|---|---|---|---|---|---|---|
| 1778220415 | 8.89° C | 72% | 1011.3 hPa | 0 mm | - | - | - |
| 1778219026 | 8.89° C | 72% | 1010 hPa | 0 mm | - | - | - |
| 1778218915 | 8.89° C | 72% | 1010 hPa | 0 mm | - | - | - |
| 1778218646 | 8.89° C | 72% | 1010 hPa | 0 mm | - | - | - |
| 1778218614 | 8.89° C | 72% | 1010 hPa | 0 mm | - | - | - |
| 1778216841 | 8.89° C | 73% | 1009.8 hPa | 0 mm | - | - | - |
| 1778216814 | 8.89° C | 73% | 1010.2 hPa | 0 mm | - | - | - |
| 1778215618 | 8.89° C | 73% | 1009.8 hPa | 0 mm | - | - | - |
| 1778215016 | 8.89° C | 73% | 1009.8 hPa | 0 mm | - | - | - |
| 1778212914 | 8.89° C | 70% | 1009.8 hPa | 0 mm | - | - | - |
| 1778212781 | 8.89° C | 70% | 1009.9 hPa | 0 mm | - | - | - |
| 1778212613 | 8.89° C | 70% | 1009.9 hPa | 0 mm | - | - | - |
| 1778211714 | 9.44° C | 70% | 1009.9 hPa | 0 mm | - | - | - |
| 1778211414 | 9.44° C | 70% | 1009.9 hPa | 0 mm | - | - | - |
| 1778211114 | 9.44° C | 69% | 1009.9 hPa | 0 mm | - | - | - |
| 1778211079 | 10° C | 64% | 1009.7 hPa | 0 mm | - | - | - |
| 1778210514 | 10° C | 67% | 1009.7 hPa | 0 mm | - | - | - |
| 1778209914 | 10° C | 65% | 1009.7 hPa | 0 mm | - | - | - |
| 1778209616 | 10° C | 64% | 1009.7 hPa | 0 mm | - | - | - |
| 1778209014 | 10° C | 66% | 1009.9 hPa | 0 mm | - | - | - |
| 1778208713 | 10° C | 65% | 1009.8 hPa | 0 mm | - | - | - |
| 1778208413 | 10.56° C | 65% | 1009.8 hPa | 0 mm | - | - | - |
| 1778207813 | 10.56° C | 65% | 1009.8 hPa | 0 mm | - | - | - |
| 1778207514 | 10.56° C | 65% | 1009.8 hPa | 0 mm | - | - | - |
| 1778207240 | 11.11° C | 62% | 1009.7 hPa | 0 mm | - | - | - |
* Rain latest hour (hover to see other rain measurements)
** Current wind speed in m/s (hover to see current wind gust speed)